^^

..:: Storico WU ::..




Lo storico viene creato da WUnderground con i dati che la stazione Meteomincio invia al loro server. L' aggiornamento viene fatto ogni 5 minuti circa, tuttavia possono esserci intervalli pił ampi a causa di errori, interruzioni di servizio o problemi nell' invio tramite FTP.


Storico stazione MeteoMincio
Giorno Sommario per Ottobre 01, 2023 Unità:  Entrambi    Inglese   Metrico
Giorno Settimana Mese Anno
  Max: Min: Media:
Temperatura: 82.4 °F /  28.0 °C 57.2 °F /  14.0 °C 68.9 °F /  20.5 °C
Dew Point: 66.2 °F /  19.0 °C 55.4 °F /  13.0 °C 60.6 °F /  15.9 °C
Umidità: 91% 52% 76%
Velocità vento: 5mph /  8km/h - 1.9mph /  3.1km/h
Raffica: 8.1mph /  13km/h - -
Direzione- - East
Pressione: 30.3 in /  1024.8 hPa 30.2 in /  1021.9 hPa -
Precipitazioni: 0 in /  0.00 mm    
 
 
Tabulato Dati per Ottobre 01, 2023
Ora Temperatura Dew Point Pressione Direzione Velocità vento Raffica Umidità Intensità pioggia (oraria) Info solare Situazione
00:04 64.4 °F /  18.0 °C 59 °F /  15.0 °C 30.2in /  1021.9hPa NE 1.9mph /  3km/h 3.7mph /  6km/h 84% 0in /  0.00mm 0.00 W/m2 unknown
00:09 64.4 °F /  18.0 °C 59 °F /  15.0 °C 30.2in /  1021.9hPa NE 2.5mph /  4km/h 3.7mph /  6km/h 84% 0in /  0.00mm 0.00 W/m2 unknown
00:14 64.4 °F /  18.0 °C 59 °F /  15.0 °C 30.2in /  1021.9hPa NE 2.5mph /  4km/h 3.7mph /  6km/h 84% 0in /  0.00mm 0.00 W/m2 unknown
00:19 64.4 °F /  18.0 °C 59 °F /  15.0 °C 30.2in /  1021.9hPa NE 1.9mph /  3km/h 2.5mph /  4km/h 84% 0in /  0.00mm 0.00 W/m2 unknown
00:24 64.4 °F /  18.0 °C 59 °F /  15.0 °C 30.2in /  1021.9hPa NE 1.2mph /  2km/h 2.5mph /  4km/h 84% 0in /  0.00mm 0.00 W/m2 unknown
00:29 64.4 °F /  18.0 °C 59 °F /  15.0 °C 30.2in /  1021.9hPa NE 2.5mph /  4km/h 3.7mph /  6km/h 85% 0in /  0.00mm 0.00 W/m2 unknown
00:34 64.4 °F /  18.0 °C 59 °F /  15.0 °C 30.2in /  1021.9hPa NE 2.5mph /  4km/h 3.7mph /  6km/h 85% 0in /  0.00mm 0.00 W/m2 unknown
00:39 64.4 °F /  18.0 °C 59 °F /  15.0 °C 30.2in /  1022.0hPa ENE 3.1mph /  5km/h 3.7mph /  6km/h 85% 0in /  0.00mm 0.00 W/m2 unknown
00:44 64.4 °F /  18.0 °C 59 °F /  15.0 °C 30.2in /  1021.9hPa ENE 2.5mph /  4km/h 3.7mph /  6km/h 85% 0in /  0.00mm 0.00 W/m2 unknown
00:49 64.4 °F /  18.0 °C 59 °F /  15.0 °C 30.2in /  1021.9hPa ENE 3.7mph /  6km/h 3.7mph /  6km/h 85% 0in /  0.00mm 0.00 W/m2 unknown
00:54 64.4 °F /  18.0 °C 59 °F /  15.0 °C 30.2in /  1022.0hPa ENE 3.7mph /  6km/h 5mph /  8km/h 85% 0in /  0.00mm 0.00 W/m2 unknown
00:59 62.6 °F /  17.0 °C 59 °F /  15.0 °C 30.2in /  1022.0hPa ENE 3.1mph /  5km/h 5mph /  8km/h 85% 0in /  0.00mm 0.00 W/m2 unknown
01:04 62.6 °F /  17.0 °C 59 °F /  15.0 °C 30.2in /  1022.0hPa ENE 3.1mph /  5km/h 5mph /  8km/h 85% 0in /  0.00mm 0.00 W/m2 unknown
01:09 62.6 °F /  17.0 °C 59 °F /  15.0 °C 30.2in /  1022.0hPa ENE 3.1mph /  5km/h 5mph /  8km/h 85% 0in /  0.00mm 0.00 W/m2 unknown
01:14 62.6 °F /  17.0 °C 59 °F /  15.0 °C 30.2in /  1022.0hPa ENE 3.1mph /  5km/h 3.7mph /  6km/h 85% 0in /  0.00mm 0.00 W/m2 unknown
01:19 62.6 °F /  17.0 °C 59 °F /  15.0 °C 30.2in /  1022.0hPa ENE 2.5mph /  4km/h 3.7mph /  6km/h 85% 0in /  0.00mm 0.00 W/m2 unknown
01:24 62.6 °F /  17.0 °C 59 °F /  15.0 °C 30.2in /  1022.1hPa ENE 1.9mph /  3km/h 3.7mph /  6km/h 85% 0in /  0.00mm 0.00 W/m2 unknown
01:29 62.6 °F /  17.0 °C 59 °F /  15.0 °C 30.2in /  1022.1hPa ENE 1.9mph /  3km/h 3.7mph /  6km/h 85% 0in /  0.00mm 0.00 W/m2 unknown
01:34 62.6 °F /  17.0 °C 59 °F /  15.0 °C 30.2in /  1022.1hPa ENE 1.9mph /  3km/h 3.7mph /  6km/h 85% 0in /  0.00mm 0.00 W/m2 unknown
01:39 62.6 °F /  17.0 °C 59 °F /  15.0 °C 30.2in /  1022.1hPa ENE 2.5mph /  4km/h 3.7mph /  6km/h 85% 0in /  0.00mm 0.00 W/m2 unknown
01:44 62.6 °F /  17.0 °C 59 °F /  15.0 °C 30.2in /  1022.1hPa ENE 1.9mph /  3km/h 3.7mph /  6km/h 85% 0in /  0.00mm 0.00 W/m2 unknown
01:49 62.6 °F /  17.0 °C 59 °F /  15.0 °C 30.2in /  1022.2hPa ENE 1.9mph /  3km/h 2.5mph /  4km/h 85% 0in /  0.00mm 0.00 W/m2 unknown
01:54 62.6 °F /  17.0 °C 59 °F /  15.0 °C 30.2in /  1022.1hPa ENE 1.2mph /  2km/h 2.5mph /  4km/h 85% 0in /  0.00mm 0.00 W/m2 unknown
01:59 62.6 °F /  17.0 °C 59 °F /  15.0 °C 30.2in /  1022.1hPa ENE 1.9mph /  3km/h 2.5mph /  4km/h 85% 0in /  0.00mm 0.00 W/m2 unknown
02:04 62.6 °F /  17.0 °C 59 °F /  15.0 °C 30.2in /  1022.1hPa ENE 1.9mph /  3km/h 2.5mph /  4km/h 86% 0in /  0.00mm 0.00 W/m2 unknown
02:09 62.6 °F /  17.0 °C 59 °F /  15.0 °C 30.2in /  1022.1hPa ENE 1.2mph /  2km/h 2.5mph /  4km/h 87% 0in /  0.00mm 0.00 W/m2 unknown
02:14 62.6 °F /  17.0 °C 59 °F /  15.0 °C 30.2in /  1022.1hPa ENE 1.9mph /  3km/h 3.1mph /  5km/h 87% 0in /  0.00mm 0.00 W/m2 unknown
02:19 62.6 °F /  17.0 °C 59 °F /  15.0 °C 30.2in /  1022.1hPa ENE 1.9mph /  3km/h 3.7mph /  6km/h 87% 0in /  0.00mm 0.00 W/m2 unknown
02:24 62.6 °F /  17.0 °C 59 °F /  15.0 °C 30.2in /  1022.0hPa ENE 1.9mph /  3km/h 3.1mph /  5km/h 88% 0in /  0.00mm 0.00 W/m2 unknown
02:29 62.6 °F /  17.0 °C 59 °F /  15.0 °C 30.2in /  1022.0hPa ENE 1.9mph /  3km/h 3.7mph /  6km/h 88% 0in /  0.00mm 0.00 W/m2 unknown
02:34 62.6 °F /  17.0 °C 59 °F /  15.0 °C 30.2in /  1022.0hPa ENE 1.9mph /  3km/h 3.7mph /  6km/h 87% 0in /  0.00mm 0.00 W/m2 unknown
02:39 62.6 °F /  17.0 °C 59 °F /  15.0 °C 30.2in /  1021.9hPa ENE 2.5mph /  4km/h 3.7mph /  6km/h 87% 0in /  0.00mm 0.00 W/m2 unknown
02:44 62.6 °F /  17.0 °C 59 °F /  15.0 °C 30.2in /  1022.0hPa ENE 2.5mph /  4km/h 3.7mph /  6km/h 87% 0in /  0.00mm 0.00 W/m2 unknown
02:49 62.6 °F /  17.0 °C 59 °F /  15.0 °C 30.2in /  1022.0hPa ENE 1.9mph /  3km/h 3.7mph /  6km/h 87% 0in /  0.00mm 0.00 W/m2 unknown
02:54 62.6 °F /  17.0 °C 59 °F /  15.0 °C 30.2in /  1022.1hPa ENE 1.2mph /  2km/h 3.1mph /  5km/h 87% 0in /  0.00mm 0.00 W/m2 unknown
02:59 62.6 °F /  17.0 °C 59 °F /  15.0 °C 30.2in /  1022.1hPa ENE 1.2mph /  2km/h 1.9mph /  3km/h 86% 0in /  0.00mm 0.00 W/m2 unknown
03:04 62.6 °F /  17.0 °C 59 °F /  15.0 °C 30.2in /  1022.1hPa ENE 0.6mph /  1km/h 1.2mph /  2km/h 86% 0in /  0.00mm 0.00 W/m2 unknown
03:09 62.6 °F /  17.0 °C 59 °F /  15.0 °C 30.2in /  1022.0hPa ENE 0.6mph /  1km/h 1.2mph /  2km/h 87% 0in /  0.00mm 0.00 W/m2 unknown
03:14 62.6 °F /  17.0 °C 59 °F /  15.0 °C 30.2in /  1022.0hPa ENE 1.2mph /  2km/h 2.5mph /  4km/h 87% 0in /  0.00mm 0.00 W/m2 unknown
03:19 62.6 °F /  17.0 °C 59 °F /  15.0 °C 30.2in /  1022.0hPa ENE 1.2mph /  2km/h 2.5mph /  4km/h 87% 0in /  0.00mm 0.00 W/m2 unknown
03:24 62.6 °F /  17.0 °C 57.2 °F /  14.0 °C 30.2in /  1022.1hPa NNE 1.9mph /  3km/h 2.5mph /  4km/h 87% 0in /  0.00mm 0.00 W/m2 unknown
03:29 62.6 °F /  17.0 °C 57.2 °F /  14.0 °C 30.2in /  1022.2hPa NNE 1.9mph /  3km/h 3.7mph /  6km/h 87% 0in /  0.00mm 0.00 W/m2 unknown
03:34 62.6 °F /  17.0 °C 57.2 °F /  14.0 °C 30.2in /  1022.2hPa North 1.9mph /  3km/h 3.7mph /  6km/h 87% 0in /  0.00mm 0.00 W/m2 unknown
03:39 60.8 °F /  16.0 °C 57.2 °F /  14.0 °C 30.2in /  1022.2hPa North 1.2mph /  2km/h 3.1mph /  5km/h 87% 0in /  0.00mm 0.00 W/m2 unknown
03:44 60.8 °F /  16.0 °C 57.2 °F /  14.0 °C 30.2in /  1022.2hPa NNE 1.2mph /  2km/h 2.5mph /  4km/h 87% 0in /  0.00mm 0.00 W/m2 unknown
03:49 60.8 °F /  16.0 °C 57.2 °F /  14.0 °C 30.2in /  1022.1hPa NNE 0.6mph /  1km/h 2.5mph /  4km/h 87% 0in /  0.00mm 0.00 W/m2 unknown
03:54 60.8 °F /  16.0 °C 57.2 °F /  14.0 °C 30.2in /  1022.1hPa Calm   1.9mph /  3km/h 87% 0in /  0.00mm 0.00 W/m2 unknown
03:59 60.8 °F /  16.0 °C 57.2 °F /  14.0 °C 30.2in /  1022.1hPa Calm   1.2mph /  2km/h 87% 0in /  0.00mm 0.00 W/m2 unknown
04:04 60.8 °F /  16.0 °C 57.2 °F /  14.0 °C 30.2in /  1022.1hPa Calm     87% 0in /  0.00mm 0.00 W/m2 unknown
04:09 60.8 °F /  16.0 °C 57.2 °F /  14.0 °C 30.2in /  1022.1hPa NNE 1.2mph /  2km/h 2.5mph /  4km/h 88% 0in /  0.00mm 0.00 W/m2 unknown
04:14 60.8 °F /  16.0 °C 57.2 °F /  14.0 °C 30.2in /  1022.1hPa NNE 1.2mph /  2km/h 2.5mph /  4km/h 88% 0in /  0.00mm 0.00 W/m2 unknown
04:19 60.8 °F /  16.0 °C 57.2 °F /  14.0 °C 30.2in /  1022.1hPa NNE 1.2mph /  2km/h 1.9mph /  3km/h 88% 0in /  0.00mm 0.00 W/m2 unknown
04:24 60.8 °F /  16.0 °C 57.2 °F /  14.0 °C 30.2in /  1022.0hPa NNE 1.2mph /  2km/h 1.2mph /  2km/h 88% 0in /  0.00mm 0.00 W/m2 unknown
04:29 60.8 °F /  16.0 °C 57.2 °F /  14.0 °C 30.2in /  1022.0hPa NNE 0.6mph /  1km/h 1.2mph /  2km/h 88% 0in /  0.00mm 0.00 W/m2 unknown
04:34 60.8 °F /  16.0 °C 57.2 °F /  14.0 °C 30.2in /  1021.9hPa Calm   1.2mph /  2km/h 89% 0in /  0.00mm 0.00 W/m2 unknown
04:39 60.8 °F /  16.0 °C 57.2 °F /  14.0 °C 30.2in /  1022.0hPa Calm   1.2mph /  2km/h 89% 0in /  0.00mm 0.00 W/m2 unknown
04:44 60.8 °F /  16.0 °C 57.2 °F /  14.0 °C 30.2in /  1022.1hPa Calm   1.2mph /  2km/h 89% 0in /  0.00mm 0.00 W/m2 unknown
04:49 60.8 °F /  16.0 °C 57.2 °F /  14.0 °C 30.2in /  1022.2hPa Calm     89% 0in /  0.00mm 0.00 W/m2 unknown
04:54 60.8 °F /  16.0 °C 57.2 °F /  14.0 °C 30.2in /  1022.2hPa NNE 0.6mph /  1km/h 1.2mph /  2km/h 89% 0in /  0.00mm 0.00 W/m2 unknown
04:59 59 °F /  15.0 °C 57.2 °F /  14.0 °C 30.2in /  1022.2hPa Calm   1.2mph /  2km/h 89% 0in /  0.00mm 0.00 W/m2 unknown
05:04 59 °F /  15.0 °C 55.4 °F /  13.0 °C 30.2in /  1022.2hPa Calm     89% 0in /  0.00mm 0.00 W/m2 unknown
05:09 59 °F /  15.0 °C 55.4 °F /  13.0 °C 30.2in /  1022.2hPa NNE 0.6mph /  1km/h 1.2mph /  2km/h 89% 0in /  0.00mm 0.00 W/m2 unknown
05:14 59 °F /  15.0 °C 55.4 °F /  13.0 °C 30.2in /  1022.2hPa NNE 0.6mph /  1km/h 1.2mph /  2km/h 90% 0in /  0.00mm 0.00 W/m2 unknown
05:19 59 °F /  15.0 °C 55.4 °F /  13.0 °C 30.2in /  1022.2hPa Calm   1.2mph /  2km/h 90% 0in /  0.00mm 0.00 W/m2 unknown
05:24 59 °F /  15.0 °C 55.4 °F /  13.0 °C 30.2in /  1022.2hPa NNE 1.2mph /  2km/h 2.5mph /  4km/h 90% 0in /  0.00mm 0.00 W/m2 unknown
05:29 59 °F /  15.0 °C 55.4 °F /  13.0 °C 30.2in /  1022.3hPa NNE 1.2mph /  2km/h 1.9mph /  3km/h 90% 0in /  0.00mm 0.00 W/m2 unknown
05:34 59 °F /  15.0 °C 55.4 °F /  13.0 °C 30.2in /  1022.2hPa Calm   1.2mph /  2km/h 90% 0in /  0.00mm 0.00 W/m2 unknown
05:39 59 °F /  15.0 °C 55.4 °F /  13.0 °C 30.2in /  1022.2hPa Calm     91% 0in /  0.00mm 0.00 W/m2 unknown
05:44 59 °F /  15.0 °C 55.4 °F /  13.0 °C 30.2in /  1022.2hPa Calm     91% 0in /  0.00mm 0.00 W/m2 unknown
05:49 59 °F /  15.0 °C 55.4 °F /  13.0 °C 30.2in /  1022.2hPa Calm     91% 0in /  0.00mm 0.00 W/m2 unknown
05:54 59 °F /  15.0 °C 55.4 °F /  13.0 °C 30.2in /  1022.3hPa NNE 0.6mph /  1km/h 1.2mph /  2km/h 91% 0in /  0.00mm 0.00 W/m2 unknown
05:59 59 °F /  15.0 °C 55.4 °F /  13.0 °C 30.2in /  1022.3hPa Calm   1.2mph /  2km/h 91% 0in /  0.00mm 0.00 W/m2 unknown
06:04 59 °F /  15.0 °C 55.4 °F /  13.0 °C 30.2in /  1022.3hPa NNE 0.6mph /  1km/h 1.2mph /  2km/h 91% 0in /  0.00mm 0.00 W/m2 unknown
06:09 59 °F /  15.0 °C 55.4 °F /  13.0 °C 30.2in /  1022.3hPa NNE 1.2mph /  2km/h 1.2mph /  2km/h 91% 0in /  0.00mm 0.00 W/m2 unknown
06:14 59 °F /  15.0 °C 55.4 °F /  13.0 °C 30.2in /  1022.3hPa NNE 0.6mph /  1km/h 1.2mph /  2km/h 91% 0in /  0.00mm 0.00 W/m2 unknown
06:19 59 °F /  15.0 °C 55.4 °F /  13.0 °C 30.2in /  1022.3hPa Calm   1.2mph /  2km/h 91% 0in /  0.00mm 0.00 W/m2 unknown
06:24 59 °F /  15.0 °C 55.4 °F /  13.0 °C 30.2in /  1022.3hPa Calm   1.2mph /  2km/h 91% 0in /  0.00mm 0.00 W/m2 unknown
06:29 59 °F /  15.0 °C 55.4 °F /  13.0 °C 30.2in /  1022.4hPa Calm     90% 0in /  0.00mm 0.00 W/m2 unknown
06:34 59 °F /  15.0 °C 55.4 °F /  13.0 °C 30.2in /  1022.4hPa Calm     90% 0in /  0.00mm 0.00 W/m2 unknown
06:39 59 °F /  15.0 °C 55.4 °F /  13.0 °C 30.2in /  1022.5hPa NNE 0.6mph /  1km/h 1.2mph /  2km/h 90% 0in /  0.00mm 0.00 W/m2 unknown
06:44 59 °F /  15.0 °C 55.4 °F /  13.0 °C 30.2in /  1022.6hPa NNE 1.2mph /  2km/h 1.2mph /  2km/h 90% 0in /  0.00mm 0.00 W/m2 unknown
06:49 57.2 °F /  14.0 °C 55.4 °F /  13.0 °C 30.2in /  1022.6hPa NNE 1.2mph /  2km/h 2.5mph /  4km/h 91% 0in /  0.00mm 0.00 W/m2 unknown
06:54 57.2 °F /  14.0 °C 55.4 °F /  13.0 °C 30.2in /  1022.6hPa NNE 1.2mph /  2km/h 1.9mph /  3km/h 91% 0in /  0.00mm 0.00 W/m2 unknown
06:59 57.2 °F /  14.0 °C 55.4 °F /  13.0 °C 30.2in /  1022.6hPa Calm   1.2mph /  2km/h 91% 0in /  0.00mm 0.00 W/m2 unknown
07:04 57.2 °F /  14.0 °C 55.4 °F /  13.0 °C 30.2in /  1022.7hPa Calm     91% 0in /  0.00mm 0.00 W/m2 unknown
07:09 57.2 °F /  14.0 °C 55.4 °F /  13.0 °C 30.2in /  1022.8hPa Calm     91% 0in /  0.00mm 0.00 W/m2 unknown
07:14 57.2 °F /  14.0 °C 55.4 °F /  13.0 °C 30.2in /  1022.9hPa Calm   1.2mph /  2km/h 91% 0in /  0.00mm 0.00 W/m2 unknown
07:19 57.2 °F /  14.0 °C 55.4 °F /  13.0 °C 30.2in /  1022.9hPa Calm   1.2mph /  2km/h 91% 0in /  0.00mm 0.00 W/m2 unknown
07:24 57.2 °F /  14.0 °C 55.4 °F /  13.0 °C 30.2in /  1022.9hPa Calm     91% 0in /  0.00mm 7.00 W/m2 unknown
07:29 57.2 °F /  14.0 °C 55.4 °F /  13.0 °C 30.2in /  1023.0hPa Calm     91% 0in /  0.00mm 11.00 W/m2 unknown
07:34 57.2 °F /  14.0 °C 55.4 °F /  13.0 °C 30.2in /  1023.1hPa Calm     91% 0in /  0.00mm 14.00 W/m2 unknown
07:39 57.2 °F /  14.0 °C 55.4 °F /  13.0 °C 30.2in /  1023.2hPa Calm     91% 0in /  0.00mm 19.00 W/m2 unknown
07:44 57.2 °F /  14.0 °C 55.4 °F /  13.0 °C 30.2in /  1023.2hPa North 1.9mph /  3km/h 2.5mph /  4km/h 91% 0in /  0.00mm 23.00 W/m2 unknown
07:49 57.2 °F /  14.0 °C 55.4 °F /  13.0 °C 30.2in /  1023.3hPa North 1.9mph /  3km/h 2.5mph /  4km/h 91% 0in /  0.00mm 26.00 W/m2 unknown
07:54 57.2 °F /  14.0 °C 55.4 °F /  13.0 °C 30.2in /  1023.4hPa North 0.6mph /  1km/h 1.2mph /  2km/h 91% 0in /  0.00mm 35.00 W/m2 unknown
07:59 59 °F /  15.0 °C 55.4 °F /  13.0 °C 30.2in /  1023.4hPa Calm   1.2mph /  2km/h 91% 0in /  0.00mm 44.00 W/m2 unknown
08:04 59 °F /  15.0 °C 55.4 °F /  13.0 °C 30.2in /  1023.5hPa Calm   1.2mph /  2km/h 91% 0in /  0.00mm 53.00 W/m2 unknown
08:09 59 °F /  15.0 °C 57.2 °F /  14.0 °C 30.2in /  1023.5hPa Calm     91% 0in /  0.00mm 62.00 W/m2 unknown
08:14 59 °F /  15.0 °C 57.2 °F /  14.0 °C 30.2in /  1023.6hPa Calm     91% 0in /  0.00mm 70.00 W/m2 unknown
08:19 59 °F /  15.0 °C 57.2 °F /  14.0 °C 30.2in /  1023.6hPa North 1.2mph /  2km/h 2.5mph /  4km/h 91% 0in /  0.00mm 83.00 W/m2 unknown
08:24 60.8 °F /  16.0 °C 57.2 °F /  14.0 °C 30.2in /  1023.7hPa North 1.2mph /  2km/h 1.9mph /  3km/h 91% 0in /  0.00mm 83.00 W/m2 unknown
08:29 60.8 °F /  16.0 °C 57.2 °F /  14.0 °C 30.2in /  1023.8hPa North 0.6mph /  1km/h 1.2mph /  2km/h 90% 0in /  0.00mm 93.00 W/m2 unknown
08:34 60.8 °F /  16.0 °C 57.2 °F /  14.0 °C 30.2in /  1023.8hPa North 0.6mph /  1km/h 1.2mph /  2km/h 90% 0in /  0.00mm 102.00 W/m2 unknown
08:39 62.6 °F /  17.0 °C 59 °F /  15.0 °C 30.2in /  1023.8hPa Calm   1.2mph /  2km/h 89% 0in /  0.00mm 127.00 W/m2 unknown
08:44 62.6 °F /  17.0 °C 59 °F /  15.0 °C 30.2in /  1023.9hPa Calm   1.2mph /  2km/h 88% 0in /  0.00mm 127.00 W/m2 unknown
08:49 62.6 °F /  17.0 °C 59 °F /  15.0 °C 30.2in /  1023.9hPa WNW 0.6mph /  1km/h 1.2mph /  2km/h 87% 0in /  0.00mm 156.00 W/m2 unknown
08:54 64.4 °F /  18.0 °C 59 °F /  15.0 °C 30.2in /  1023.9hPa Calm   1.2mph /  2km/h 85% 0in /  0.00mm 169.00 W/m2 unknown
08:59 64.4 °F /  18.0 °C 59 °F /  15.0 °C 30.2in /  1024.0hPa Calm   1.2mph /  2km/h 85% 0in /  0.00mm 181.00 W/m2 unknown
09:04 64.4 °F /  18.0 °C 59 °F /  15.0 °C 30.2in /  1024.0hPa Calm     83% 0in /  0.00mm 193.00 W/m2 unknown
09:09 66.2 °F /  19.0 °C 59 °F /  15.0 °C 30.2in /  1024.1hPa Calm     82% 0in /  0.00mm 209.00 W/m2 unknown
09:14 66.2 °F /  19.0 °C 59 °F /  15.0 °C 30.2in /  1024.1hPa WNW 0.6mph /  1km/h 1.9mph /  3km/h 80% 0in /  0.00mm 220.00 W/m2 unknown
09:19 66.2 °F /  19.0 °C 59 °F /  15.0 °C 30.2in /  1024.2hPa WNW 0.6mph /  1km/h 1.9mph /  3km/h 80% 0in /  0.00mm 237.00 W/m2 unknown
09:24 66.2 °F /  19.0 °C 60.8 °F /  16.0 °C 30.2in /  1024.2hPa WNW 0.6mph /  1km/h 1.2mph /  2km/h 79% 0in /  0.00mm 251.00 W/m2 unknown
09:29 68 °F /  20.0 °C 60.8 °F /  16.0 °C 30.2in /  1024.2hPa NW 0.6mph /  1km/h 1.9mph /  3km/h 78% 0in /  0.00mm 269.00 W/m2 unknown
09:34 68 °F /  20.0 °C 60.8 °F /  16.0 °C 30.3in /  1024.3hPa North 1.2mph /  2km/h 2.5mph /  4km/h 78% 0in /  0.00mm 281.00 W/m2 unknown
09:39 68 °F /  20.0 °C 60.8 °F /  16.0 °C 30.3in /  1024.4hPa NW 1.2mph /  2km/h 2.5mph /  4km/h 78% 0in /  0.00mm 294.00 W/m2 unknown
09:44 68 °F /  20.0 °C 60.8 °F /  16.0 °C 30.3in /  1024.4hPa WNW 1.2mph /  2km/h 1.9mph /  3km/h 76% 0in /  0.00mm 302.00 W/m2 unknown
09:49 68 °F /  20.0 °C 60.8 °F /  16.0 °C 30.3in /  1024.4hPa West 1.2mph /  2km/h 2.5mph /  4km/h 75% 0in /  0.00mm 315.00 W/m2 unknown
09:54 68 °F /  20.0 °C 60.8 °F /  16.0 °C 30.3in /  1024.4hPa WNW 1.2mph /  2km/h 1.9mph /  3km/h 76% 0in /  0.00mm 320.00 W/m2 unknown
09:59 69.8 °F /  21.0 °C 60.8 °F /  16.0 °C 30.3in /  1024.4hPa East 1.9mph /  3km/h 3.7mph /  6km/h 76% 0in /  0.00mm 334.00 W/m2 unknown
10:04 69.8 °F /  21.0 °C 60.8 °F /  16.0 °C 30.3in /  1024.4hPa SE 2.5mph /  4km/h 3.7mph /  6km/h 75% 0in /  0.00mm 352.00 W/m2 unknown
10:09 69.8 °F /  21.0 °C 60.8 °F /  16.0 °C 30.3in /  1024.5hPa SE 2.5mph /  4km/h 3.7mph /  6km/h 75% 0in /  0.00mm 360.00 W/m2 unknown
10:14 69.8 °F /  21.0 °C 60.8 °F /  16.0 °C 30.3in /  1024.6hPa SE 1.9mph /  3km/h 3.7mph /  6km/h 75% 0in /  0.00mm 373.00 W/m2 unknown
10:19 69.8 °F /  21.0 °C 62.6 °F /  17.0 °C 30.3in /  1024.6hPa SE 2.5mph /  4km/h 3.7mph /  6km/h 76% 0in /  0.00mm 383.00 W/m2 unknown
10:24 69.8 °F /  21.0 °C 62.6 °F /  17.0 °C 30.3in /  1024.6hPa East 1.2mph /  2km/h 3.7mph /  6km/h 77% 0in /  0.00mm 396.00 W/m2 unknown
10:29 69.8 °F /  21.0 °C 62.6 °F /  17.0 °C 30.3in /  1024.6hPa NE 3.1mph /  5km/h 3.7mph /  6km/h 77% 0in /  0.00mm 408.00 W/m2 unknown
10:34 69.8 °F /  21.0 °C 62.6 °F /  17.0 °C 30.3in /  1024.6hPa ENE 2.5mph /  4km/h 3.7mph /  6km/h 76% 0in /  0.00mm 422.00 W/m2 unknown
10:39 71.6 °F /  22.0 °C 62.6 °F /  17.0 °C 30.3in /  1024.6hPa ENE 2.5mph /  4km/h 3.7mph /  6km/h 76% 0in /  0.00mm 431.00 W/m2 unknown
10:44 71.6 °F /  22.0 °C 62.6 °F /  17.0 °C 30.3in /  1024.6hPa East 2.5mph /  4km/h 3.7mph /  6km/h 76% 0in /  0.00mm 441.00 W/m2 unknown
10:49 71.6 °F /  22.0 °C 62.6 °F /  17.0 °C 30.3in /  1024.7hPa ENE 4.3mph /  7km/h 6.8mph /  11km/h 76% 0in /  0.00mm 452.00 W/m2 unknown
10:54 71.6 °F /  22.0 °C 62.6 °F /  17.0 °C 30.3in /  1024.7hPa ENE 4.3mph /  7km/h 6.8mph /  11km/h 74% 0in /  0.00mm 466.00 W/m2 unknown
10:59 73.4 °F /  23.0 °C 64.4 °F /  18.0 °C 30.3in /  1024.8hPa ENE 3.7mph /  6km/h 5mph /  8km/h 76% 0in /  0.00mm 478.00 W/m2 unknown
11:04 73.4 °F /  23.0 °C 64.4 °F /  18.0 °C 30.3in /  1024.8hPa ENE 3.1mph /  5km/h 5mph /  8km/h 76% 0in /  0.00mm 485.00 W/m2 unknown
11:09 73.4 °F /  23.0 °C 62.6 °F /  17.0 °C 30.3in /  1024.8hPa East 5mph /  8km/h 6.2mph /  10km/h 72% 0in /  0.00mm 490.00 W/m2 unknown
11:14 73.4 °F /  23.0 °C 62.6 °F /  17.0 °C 30.3in /  1024.8hPa East 5mph /  8km/h 6.8mph /  11km/h 71% 0in /  0.00mm 497.00 W/m2 unknown
11:19 73.4 °F /  23.0 °C 62.6 °F /  17.0 °C 30.3in /  1024.7hPa East 4.3mph /  7km/h 6.8mph /  11km/h 71% 0in /  0.00mm 508.00 W/m2 unknown
11:24 73.4 °F /  23.0 °C 62.6 °F /  17.0 °C 30.3in /  1024.7hPa East 5mph /  8km/h 6.8mph /  11km/h 70% 0in /  0.00mm 515.00 W/m2 unknown
11:29 73.4 °F /  23.0 °C 62.6 °F /  17.0 °C 30.3in /  1024.7hPa East 3.7mph /  6km/h 6.2mph /  10km/h 70% 0in /  0.00mm 526.00 W/m2 unknown
11:34 73.4 °F /  23.0 °C 62.6 °F /  17.0 °C 30.3in /  1024.8hPa ESE 5mph /  8km/h 6.8mph /  11km/h 69% 0in /  0.00mm 534.00 W/m2 unknown
11:39 73.4 °F /  23.0 °C 62.6 °F /  17.0 °C 30.3in /  1024.8hPa ESE 5mph /  8km/h 6.8mph /  11km/h 68% 0in /  0.00mm 540.00 W/m2 unknown
11:44 73.4 °F /  23.0 °C 62.6 °F /  17.0 °C 30.3in /  1024.8hPa ENE 4.3mph /  7km/h 6.8mph /  11km/h 68% 0in /  0.00mm 543.00 W/m2 unknown
11:49 75.2 °F /  24.0 °C 64.4 °F /  18.0 °C 30.3in /  1024.8hPa East 4.3mph /  7km/h 6.8mph /  11km/h 69% 0in /  0.00mm 559.00 W/m2 unknown
11:54 75.2 °F /  24.0 °C 64.4 °F /  18.0 °C 30.3in /  1024.8hPa East 3.7mph /  6km/h 5mph /  8km/h 68% 0in /  0.00mm 564.00 W/m2 unknown
11:59 75.2 °F /  24.0 °C 62.6 °F /  17.0 °C 30.3in /  1024.7hPa East 3.7mph /  6km/h 6.2mph /  10km/h 67% 0in /  0.00mm 571.00 W/m2 unknown
12:04 75.2 °F /  24.0 °C 64.4 °F /  18.0 °C 30.3in /  1024.7hPa SE 3.7mph /  6km/h 6.2mph /  10km/h 67% 0in /  0.00mm 573.00 W/m2 unknown
12:09 75.2 °F /  24.0 °C 64.4 °F /  18.0 °C 30.3in /  1024.7hPa SSE 3.1mph /  5km/h 5mph /  8km/h 67% 0in /  0.00mm 575.00 W/m2 unknown
12:14 75.2 °F /  24.0 °C 64.4 °F /  18.0 °C 30.3in /  1024.7hPa ESE 2.5mph /  4km/h 3.7mph /  6km/h 68% 0in /  0.00mm 587.00 W/m2 unknown
12:19 75.2 °F /  24.0 °C 62.6 °F /  17.0 °C 30.3in /  1024.6hPa ESE 2.5mph /  4km/h 3.7mph /  6km/h 65% 0in /  0.00mm 596.00 W/m2 unknown
12:24 77 °F /  25.0 °C 62.6 °F /  17.0 °C 30.3in /  1024.7hPa ESE 2.5mph /  4km/h 3.7mph /  6km/h 64% 0in /  0.00mm 598.00 W/m2 unknown
12:29 77 °F /  25.0 °C 64.4 °F /  18.0 °C 30.3in /  1024.6hPa East 5mph /  8km/h 6.2mph /  10km/h 64% 0in /  0.00mm 598.00 W/m2 unknown
12:34 77 °F /  25.0 °C 62.6 °F /  17.0 °C 30.3in /  1024.5hPa ESE 4.3mph /  7km/h 6.2mph /  10km/h 63% 0in /  0.00mm 598.00 W/m2 unknown
12:39 77 °F /  25.0 °C 62.6 °F /  17.0 °C 30.3in /  1024.5hPa ENE 4.3mph /  7km/h 6.2mph /  10km/h 62% 0in /  0.00mm 608.00 W/m2 unknown
12:44 77 °F /  25.0 °C 62.6 °F /  17.0 °C 30.3in /  1024.5hPa ENE 4.3mph /  7km/h 6.8mph /  11km/h 62% 0in /  0.00mm 610.00 W/m2 unknown
12:49 78.8 °F /  26.0 °C 64.4 °F /  18.0 °C 30.3in /  1024.4hPa NE 3.1mph /  5km/h 6.8mph /  11km/h 63% 0in /  0.00mm 619.00 W/m2 unknown
12:54 78.8 °F /  26.0 °C 64.4 °F /  18.0 °C 30.3in /  1024.4hPa NE 3.1mph /  5km/h 3.7mph /  6km/h 63% 0in /  0.00mm 621.00 W/m2 unknown
12:59 78.8 °F /  26.0 °C 64.4 °F /  18.0 °C 30.3in /  1024.4hPa ESE 3.1mph /  5km/h 5mph /  8km/h 62% 0in /  0.00mm 622.00 W/m2 unknown
13:04 78.8 °F /  26.0 °C 62.6 °F /  17.0 °C 30.3in /  1024.3hPa East 5mph /  8km/h 6.2mph /  10km/h 61% 0in /  0.00mm 622.00 W/m2 unknown
13:09 78.8 °F /  26.0 °C 62.6 °F /  17.0 °C 30.3in /  1024.3hPa ENE 5mph /  8km/h 8.1mph /  13km/h 60% 0in /  0.00mm 619.00 W/m2 unknown
13:14 78.8 °F /  26.0 °C 64.4 °F /  18.0 °C 30.2in /  1024.2hPa ENE 5mph /  8km/h 8.1mph /  13km/h 60% 0in /  0.00mm 617.00 W/m2 unknown
13:19 78.8 °F /  26.0 °C 62.6 °F /  17.0 °C 30.2in /  1024.2hPa NE 4.3mph /  7km/h 6.2mph /  10km/h 59% 0in /  0.00mm 617.00 W/m2 unknown
13:24 78.8 °F /  26.0 °C 64.4 °F /  18.0 °C 30.2in /  1024.1hPa NE 3.7mph /  6km/h 6.2mph /  10km/h 60% 0in /  0.00mm 617.00 W/m2 unknown
13:29 78.8 °F /  26.0 °C 62.6 °F /  17.0 °C 30.2in /  1024.0hPa East 3.7mph /  6km/h 6.8mph /  11km/h 58% 0in /  0.00mm 622.00 W/m2 unknown
13:34 78.8 °F /  26.0 °C 62.6 °F /  17.0 °C 30.2in /  1023.9hPa East 4.3mph /  7km/h 6.8mph /  11km/h 58% 0in /  0.00mm 624.00 W/m2 unknown
13:39 78.8 °F /  26.0 °C 62.6 °F /  17.0 °C 30.2in /  1023.9hPa ESE 4.3mph /  7km/h 6.8mph /  11km/h 59% 0in /  0.00mm 622.00 W/m2 unknown
13:44 78.8 °F /  26.0 °C 64.4 °F /  18.0 °C 30.2in /  1023.9hPa ENE 4.3mph /  7km/h 6.8mph /  11km/h 58% 0in /  0.00mm 622.00 W/m2 unknown
13:49 80.6 °F /  27.0 °C 62.6 °F /  17.0 °C 30.2in /  1023.8hPa ENE 3.7mph /  6km/h 6.8mph /  11km/h 57% 0in /  0.00mm 619.00 W/m2 unknown
13:54 80.6 °F /  27.0 °C 64.4 °F /  18.0 °C 30.2in /  1023.8hPa ENE 5mph /  8km/h 6.2mph /  10km/h 57% 0in /  0.00mm 610.00 W/m2 unknown
13:59 80.6 °F /  27.0 °C 62.6 °F /  17.0 °C 30.2in /  1023.7hPa East 5mph /  8km/h 6.2mph /  10km/h 54% 0in /  0.00mm 610.00 W/m2 unknown
14:04 80.6 °F /  27.0 °C 62.6 °F /  17.0 °C 30.2in /  1023.7hPa East 3.7mph /  6km/h 6.2mph /  10km/h 56% 0in /  0.00mm 605.00 W/m2 unknown
14:09 80.6 °F /  27.0 °C 62.6 °F /  17.0 °C 30.2in /  1023.6hPa East 3.7mph /  6km/h 5mph /  8km/h 56% 0in /  0.00mm 601.00 W/m2 unknown
14:14 80.6 °F /  27.0 °C 64.4 °F /  18.0 °C 30.2in /  1023.6hPa ENE 3.1mph /  5km/h 6.2mph /  10km/h 57% 0in /  0.00mm 598.00 W/m2 unknown
14:19 80.6 °F /  27.0 °C 64.4 °F /  18.0 °C 30.2in /  1023.5hPa ENE 3.7mph /  6km/h 6.2mph /  10km/h 56% 0in /  0.00mm 591.00 W/m2 unknown
14:24 80.6 °F /  27.0 °C 62.6 °F /  17.0 °C 30.2in /  1023.5hPa ESE 3.7mph /  6km/h 6.2mph /  10km/h 55% 0in /  0.00mm 591.00 W/m2 unknown
14:29 80.6 °F /  27.0 °C 62.6 °F /  17.0 °C 30.2in /  1023.4hPa East 3.1mph /  5km/h 5mph /  8km/h 55% 0in /  0.00mm 591.00 W/m2 unknown
14:34 80.6 °F /  27.0 °C 62.6 °F /  17.0 °C 30.2in /  1023.4hPa NE 4.3mph /  7km/h 6.2mph /  10km/h 55% 0in /  0.00mm 582.00 W/m2 unknown
14:39 80.6 °F /  27.0 °C 62.6 °F /  17.0 °C 30.2in /  1023.3hPa ENE 3.7mph /  6km/h 6.8mph /  11km/h 54% 0in /  0.00mm 580.00 W/m2 unknown
14:44 80.6 °F /  27.0 °C 62.6 °F /  17.0 °C 30.2in /  1023.3hPa ENE 4.3mph /  7km/h 6.8mph /  11km/h 54% 0in /  0.00mm 575.00 W/m2 unknown
14:49 80.6 °F /  27.0 °C 62.6 °F /  17.0 °C 30.2in /  1023.2hPa East 5mph /  8km/h 6.8mph /  11km/h 53% 0in /  0.00mm 568.00 W/m2 unknown
14:54 80.6 °F /  27.0 °C 62.6 °F /  17.0 °C 30.2in /  1023.2hPa ESE 3.1mph /  5km/h 5mph /  8km/h 54% 0in /  0.00mm 561.00 W/m2 unknown
14:59 80.6 °F /  27.0 °C 64.4 °F /  18.0 °C 30.2in /  1023.2hPa ENE 3.1mph /  5km/h 5mph /  8km/h 56% 0in /  0.00mm 545.00 W/m2 unknown
15:04 80.6 °F /  27.0 °C 64.4 °F /  18.0 °C 30.2in /  1023.1hPa ENE 3.7mph /  6km/h 5mph /  8km/h 55% 0in /  0.00mm 536.00 W/m2 unknown
15:09 80.6 °F /  27.0 °C 62.6 °F /  17.0 °C 30.2in /  1023.1hPa East 3.1mph /  5km/h 5mph /  8km/h 53% 0in /  0.00mm 529.00 W/m2 unknown
15:14 80.6 °F /  27.0 °C 62.6 °F /  17.0 °C 30.2in /  1023.1hPa ESE 5mph /  8km/h 6.8mph /  11km/h 52% 0in /  0.00mm 524.00 W/m2 unknown
15:19 82.4 °F /  28.0 °C 62.6 °F /  17.0 °C 30.2in /  1023.0hPa East 5mph /  8km/h 6.8mph /  11km/h 53% 0in /  0.00mm 519.00 W/m2 unknown
15:24 82.4 °F /  28.0 °C 62.6 °F /  17.0 °C 30.2in /  1023.0hPa ENE 4.3mph /  7km/h 6.8mph /  11km/h 53% 0in /  0.00mm 513.00 W/m2 unknown
15:29 82.4 °F /  28.0 °C 62.6 °F /  17.0 °C 30.2in /  1023.0hPa East 3.7mph /  6km/h 6.2mph /  10km/h 52% 0in /  0.00mm 497.00 W/m2 unknown
15:34 80.6 °F /  27.0 °C 62.6 °F /  17.0 °C 30.2in /  1023.0hPa ENE 3.7mph /  6km/h 6.2mph /  10km/h 52% 0in /  0.00mm 483.00 W/m2 unknown
15:39 80.6 °F /  27.0 °C 62.6 °F /  17.0 °C 30.2in /  1022.9hPa ESE 4.3mph /  7km/h 6.2mph /  10km/h 53% 0in /  0.00mm 473.00 W/m2 unknown
15:44 80.6 °F /  27.0 °C 62.6 °F /  17.0 °C 30.2in /  1022.9hPa East 3.7mph /  6km/h 6.2mph /  10km/h 53% 0in /  0.00mm 471.00 W/m2 unknown
15:49 82.4 °F /  28.0 °C 62.6 °F /  17.0 °C 30.2in /  1022.7hPa ESE 3.1mph /  5km/h 5mph /  8km/h 52% 0in /  0.00mm 459.00 W/m2 unknown
15:54 82.4 °F /  28.0 °C 62.6 °F /  17.0 °C 30.2in /  1022.7hPa ESE 3.1mph /  5km/h 5mph /  8km/h 53% 0in /  0.00mm 452.00 W/m2 unknown
15:59 82.4 °F /  28.0 °C 62.6 °F /  17.0 °C 30.2in /  1022.6hPa East 3.7mph /  6km/h 5mph /  8km/h 53% 0in /  0.00mm 438.00 W/m2 unknown
16:04 82.4 °F /  28.0 °C 62.6 °F /  17.0 °C 30.2in /  1022.6hPa ESE 2.5mph /  4km/h 5mph /  8km/h 53% 0in /  0.00mm 429.00 W/m2 unknown
16:09 82.4 °F /  28.0 °C 64.4 °F /  18.0 °C 30.2in /  1022.5hPa East 1.9mph /  3km/h 5mph /  8km/h 55% 0in /  0.00mm 418.00 W/m2 unknown
16:14 82.4 °F /  28.0 °C 64.4 °F /  18.0 °C 30.2in /  1022.5hPa NE 3.1mph /  5km/h 6.2mph /  10km/h 55% 0in /  0.00mm 404.00 W/m2 unknown
16:19 82.4 °F /  28.0 °C 62.6 °F /  17.0 °C 30.2in /  1022.5hPa ESE 3.7mph /  6km/h 6.2mph /  10km/h 53% 0in /  0.00mm 394.00 W/m2 unknown
16:24 80.6 °F /  27.0 °C 62.6 °F /  17.0 °C 30.2in /  1022.5hPa East 2.5mph /  4km/h 6.2mph /  10km/h 54% 0in /  0.00mm 378.00 W/m2 unknown
16:29 82.4 °F /  28.0 °C 62.6 °F /  17.0 °C 30.2in /  1022.4hPa East 3.1mph /  5km/h 3.7mph /  6km/h 54% 0in /  0.00mm 371.00 W/m2 unknown
16:34 82.4 °F /  28.0 °C 62.6 °F /  17.0 °C 30.2in /  1022.5hPa East 3.7mph /  6km/h 6.2mph /  10km/h 54% 0in /  0.00mm 348.00 W/m2 unknown
16:39 82.4 °F /  28.0 °C 62.6 °F /  17.0 °C 30.2in /  1022.4hPa East 3.1mph /  5km/h 6.2mph /  10km/h 53% 0in /  0.00mm 330.00 W/m2 unknown
16:44 80.6 °F /  27.0 °C 62.6 °F /  17.0 °C 30.2in /  1022.4hPa East 3.1mph /  5km/h 5mph /  8km/h 54% 0in /  0.00mm 316.00 W/m2 unknown
16:49 80.6 °F /  27.0 °C 62.6 °F /  17.0 °C 30.2in /  1022.4hPa East 2.5mph /  4km/h 5mph /  8km/h 54% 0in /  0.00mm 299.00 W/m2 unknown
16:54 80.6 °F /  27.0 °C 62.6 °F /  17.0 °C 30.2in /  1022.3hPa East 2.5mph /  4km/h 3.7mph /  6km/h 53% 0in /  0.00mm 283.00 W/m2 unknown
16:59 80.6 °F /  27.0 °C 62.6 °F /  17.0 °C 30.2in /  1022.4hPa East 2.5mph /  4km/h 3.7mph /  6km/h 54% 0in /  0.00mm 276.00 W/m2 unknown
17:04 80.6 °F /  27.0 °C 62.6 °F /  17.0 °C 30.2in /  1022.3hPa ENE 3.1mph /  5km/h 3.7mph /  6km/h 54% 0in /  0.00mm 262.00 W/m2 unknown
17:09 80.6 °F /  27.0 °C 62.6 °F /  17.0 °C 30.2in /  1022.3hPa ENE 3.1mph /  5km/h 3.7mph /  6km/h 54% 0in /  0.00mm 248.00 W/m2 unknown
17:14 80.6 °F /  27.0 °C 64.4 °F /  18.0 °C 30.2in /  1022.3hPa ENE 3.1mph /  5km/h 3.7mph /  6km/h 56% 0in /  0.00mm 232.00 W/m2 unknown
17:19 80.6 °F /  27.0 °C 64.4 °F /  18.0 °C 30.2in /  1022.3hPa ENE 2.5mph /  4km/h 3.7mph /  6km/h 56% 0in /  0.00mm 221.00 W/m2 unknown
17:24 80.6 °F /  27.0 °C 64.4 °F /  18.0 °C 30.2in /  1022.3hPa ENE 3.1mph /  5km/h 3.7mph /  6km/h 57% 0in /  0.00mm 211.00 W/m2 unknown
17:29 80.6 °F /  27.0 °C 64.4 °F /  18.0 °C 30.2in /  1022.2hPa ENE 3.1mph /  5km/h 3.7mph /  6km/h 57% 0in /  0.00mm 197.00 W/m2 unknown
17:34 80.6 °F /  27.0 °C 64.4 °F /  18.0 °C 30.2in /  1022.2hPa ENE 2.5mph /  4km/h 3.7mph /  6km/h 58% 0in /  0.00mm 179.00 W/m2 unknown
17:39 80.6 °F /  27.0 °C 64.4 °F /  18.0 °C 30.2in /  1022.2hPa ENE 2.5mph /  4km/h 3.7mph /  6km/h 60% 0in /  0.00mm 167.00 W/m2 unknown
17:44 80.6 °F /  27.0 °C 64.4 °F /  18.0 °C 30.2in /  1022.2hPa ENE 3.1mph /  5km/h 3.7mph /  6km/h 60% 0in /  0.00mm 151.00 W/m2 unknown
17:49 80.6 °F /  27.0 °C 64.4 °F /  18.0 °C 30.2in /  1022.2hPa ENE 2.5mph /  4km/h 3.7mph /  6km/h 60% 0in /  0.00mm 139.00 W/m2 unknown
17:54 78.8 °F /  26.0 °C 64.4 °F /  18.0 °C 30.2in /  1022.2hPa ENE 1.9mph /  3km/h 3.7mph /  6km/h 60% 0in /  0.00mm 123.00 W/m2 unknown
17:59 78.8 °F /  26.0 °C 64.4 °F /  18.0 °C 30.2in /  1022.3hPa ENE 1.9mph /  3km/h 3.7mph /  6km/h 63% 0in /  0.00mm 107.00 W/m2 unknown
18:04 78.8 °F /  26.0 °C 66.2 °F /  19.0 °C 30.2in /  1022.3hPa ENE 1.9mph /  3km/h 3.7mph /  6km/h 65% 0in /  0.00mm 91.00 W/m2 unknown
18:09 78.8 °F /  26.0 °C 66.2 °F /  19.0 °C 30.2in /  1022.4hPa ENE 1.2mph /  2km/h 3.1mph /  5km/h 65% 0in /  0.00mm 79.00 W/m2 unknown
18:14 78.8 °F /  26.0 °C 66.2 °F /  19.0 °C 30.2in /  1022.4hPa ENE 1.2mph /  2km/h 2.5mph /  4km/h 65% 0in /  0.00mm 67.00 W/m2 unknown
18:19 77 °F /  25.0 °C 64.4 °F /  18.0 °C 30.2in /  1022.4hPa ENE 1.2mph /  2km/h 2.5mph /  4km/h 65% 0in /  0.00mm 56.00 W/m2 unknown
18:24 77 °F /  25.0 °C 64.4 °F /  18.0 °C 30.2in /  1022.4hPa ENE 1.2mph /  2km/h 2.5mph /  4km/h 67% 0in /  0.00mm 42.00 W/m2 unknown
18:29 77 °F /  25.0 °C 64.4 °F /  18.0 °C 30.2in /  1022.4hPa NE 1.2mph /  2km/h 2.5mph /  4km/h 68% 0in /  0.00mm 28.00 W/m2 unknown
18:34 77 °F /  25.0 °C 64.4 °F /  18.0 °C 30.2in /  1022.4hPa Calm   1.9mph /  3km/h 68% 0in /  0.00mm 23.00 W/m2 unknown
18:39 75.2 °F /  24.0 °C 64.4 °F /  18.0 °C 30.2in /  1022.4hPa Calm   1.2mph /  2km/h 69% 0in /  0.00mm 19.00 W/m2 unknown
18:44 75.2 °F /  24.0 °C 64.4 °F /  18.0 °C 30.2in /  1022.4hPa Calm   1.2mph /  2km/h 71% 0in /  0.00mm 14.00 W/m2 unknown
18:49 75.2 °F /  24.0 °C 64.4 °F /  18.0 °C 30.2in /  1022.4hPa Calm     72% 0in /  0.00mm 11.00 W/m2 unknown
18:54 73.4 °F /  23.0 °C 64.4 °F /  18.0 °C 30.2in /  1022.4hPa Calm     72% 0in /  0.00mm 7.00 W/m2 unknown
18:59 73.4 °F /  23.0 °C 64.4 °F /  18.0 °C 30.2in /  1022.5hPa Calm     73% 0in /  0.00mm 5.00 W/m2 unknown
19:04 73.4 °F /  23.0 °C 64.4 °F /  18.0 °C 30.2in /  1022.6hPa Calm     75% 0in /  0.00mm 0.00 W/m2 unknown
19:09 73.4 °F /  23.0 °C 64.4 °F /  18.0 °C 30.2in /  1022.6hPa Calm     76% 0in /  0.00mm 0.00 W/m2 unknown
19:14 71.6 °F /  22.0 °C 64.4 °F /  18.0 °C 30.2in /  1022.6hPa Calm     76% 0in /  0.00mm 0.00 W/m2 unknown
19:19 71.6 °F /  22.0 °C 64.4 °F /  18.0 °C 30.2in /  1022.7hPa Calm     77% 0in /  0.00mm 0.00 W/m2 unknown
19:24 71.6 °F /  22.0 °C 64.4 °F /  18.0 °C 30.2in /  1022.7hPa NNE 0.6mph /  1km/h 1.2mph /  2km/h 77% 0in /  0.00mm 0.00 W/m2 unknown
19:29 71.6 °F /  22.0 °C 64.4 °F /  18.0 °C 30.2in /  1022.7hPa NNE 0.6mph /  1km/h 1.2mph /  2km/h 77% 0in /  0.00mm 0.00 W/m2 unknown
19:34 71.6 °F /  22.0 °C 64.4 °F /  18.0 °C 30.2in /  1022.8hPa NNE 0.6mph /  1km/h 1.2mph /  2km/h 77% 0in /  0.00mm 0.00 W/m2 unknown
19:39 69.8 °F /  21.0 °C 62.6 °F /  17.0 °C 30.2in /  1022.8hPa NNE 0.6mph /  1km/h 1.2mph /  2km/h 77% 0in /  0.00mm 0.00 W/m2 unknown
19:44 69.8 °F /  21.0 °C 62.6 °F /  17.0 °C 30.2in /  1022.9hPa Calm   1.2mph /  2km/h 77% 0in /  0.00mm 0.00 W/m2 unknown
19:49 69.8 °F /  21.0 °C 62.6 °F /  17.0 °C 30.2in /  1023.0hPa Calm     77% 0in /  0.00mm 0.00 W/m2 unknown
19:54 69.8 °F /  21.0 °C 62.6 °F /  17.0 °C 30.2in /  1023.0hPa Calm     77% 0in /  0.00mm 0.00 W/m2 unknown
19:59 69.8 °F /  21.0 °C 62.6 °F /  17.0 °C 30.2in /  1023.1hPa Calm     78% 0in /  0.00mm 0.00 W/m2 unknown
20:04 69.8 °F /  21.0 °C 62.6 °F /  17.0 °C 30.2in /  1023.1hPa Calm     78% 0in /  0.00mm 0.00 W/m2 unknown
20:09 69.8 °F /  21.0 °C 62.6 °F /  17.0 °C 30.2in /  1023.1hPa Calm     78% 0in /  0.00mm 0.00 W/m2 unknown
20:14 69.8 °F /  21.0 °C 62.6 °F /  17.0 °C 30.2in /  1023.2hPa Calm     79% 0in /  0.00mm 0.00 W/m2 unknown
20:19 69.8 °F /  21.0 °C 62.6 °F /  17.0 °C 30.2in /  1023.1hPa Calm     79% 0in /  0.00mm 0.00 W/m2 unknown
20:24 69.8 °F /  21.0 °C 62.6 °F /  17.0 °C 30.2in /  1023.2hPa Calm     79% 0in /  0.00mm 0.00 W/m2 unknown
20:29 69.8 °F /  21.0 °C 62.6 °F /  17.0 °C 30.2in /  1023.2hPa Calm     79% 0in /  0.00mm 0.00 W/m2 unknown
20:34 68 °F /  20.0 °C 62.6 °F /  17.0 °C 30.2in /  1023.2hPa Calm     80% 0in /  0.00mm 0.00 W/m2 unknown
20:39 68 °F /  20.0 °C 62.6 °F /  17.0 °C 30.2in /  1023.3hPa Calm     80% 0in /  0.00mm 0.00 W/m2 unknown
20:44 68 °F /  20.0 °C 62.6 °F /  17.0 °C 30.2in /  1023.3hPa Calm     80% 0in /  0.00mm 0.00 W/m2 unknown
20:49 68 °F /  20.0 °C 62.6 °F /  17.0 °C 30.2in /  1023.3hPa Calm     80% 0in /  0.00mm 0.00 W/m2 unknown
20:54 68 °F /  20.0 °C 62.6 °F /  17.0 °C 30.2in /  1023.3hPa Calm     81% 0in /  0.00mm 0.00 W/m2 unknown
20:59 68 °F /  20.0 °C 62.6 °F /  17.0 °C 30.2in /  1023.3hPa Calm     81% 0in /  0.00mm 0.00 W/m2 unknown
21:04 68 °F /  20.0 °C 62.6 °F /  17.0 °C 30.2in /  1023.3hPa Calm     81% 0in /  0.00mm 0.00 W/m2 unknown
21:09 68 °F /  20.0 °C 62.6 °F /  17.0 °C 30.2in /  1023.4hPa Calm     82% 0in /  0.00mm 0.00 W/m2 unknown
21:14 68 °F /  20.0 °C 62.6 °F /  17.0 °C 30.2in /  1023.4hPa Calm     83% 0in /  0.00mm 0.00 W/m2 unknown
21:19 68 °F /  20.0 °C 60.8 °F /  16.0 °C 30.2in /  1023.5hPa Calm     82% 0in /  0.00mm 0.00 W/m2 unknown
21:24 66.2 °F /  19.0 °C 60.8 °F /  16.0 °C 30.2in /  1023.5hPa Calm     82% 0in /  0.00mm 0.00 W/m2 unknown
21:29 66.2 °F /  19.0 °C 60.8 °F /  16.0 °C 30.2in /  1023.5hPa Calm     82% 0in /  0.00mm 0.00 W/m2 unknown
21:34 66.2 °F /  19.0 °C 60.8 °F /  16.0 °C 30.2in /  1023.6hPa Calm     83% 0in /  0.00mm 0.00 W/m2 unknown
21:39 66.2 °F /  19.0 °C 60.8 °F /  16.0 °C 30.2in /  1023.6hPa Calm     83% 0in /  0.00mm 0.00 W/m2 unknown
21:44 66.2 °F /  19.0 °C 60.8 °F /  16.0 °C 30.2in /  1023.6hPa Calm     84% 0in /  0.00mm 0.00 W/m2 unknown
21:49 66.2 °F /  19.0 °C 60.8 °F /  16.0 °C 30.2in /  1023.7hPa Calm     84% 0in /  0.00mm 0.00 W/m2 unknown
21:54 66.2 °F /  19.0 °C 60.8 °F /  16.0 °C 30.2in /  1023.8hPa NE 0.6mph /  1km/h 3.1mph /  5km/h 85% 0in /  0.00mm 0.00 W/m2 unknown
21:59 66.2 °F /  19.0 °C 60.8 °F /  16.0 °C 30.2in /  1023.8hPa ENE 1.9mph /  3km/h 3.7mph /  6km/h 85% 0in /  0.00mm 0.00 W/m2 unknown
22:04 66.2 °F /  19.0 °C 60.8 °F /  16.0 °C 30.2in /  1023.7hPa ENE 1.9mph /  3km/h 3.1mph /  5km/h 85% 0in /  0.00mm 0.00 W/m2 unknown
22:09 64.4 °F /  18.0 °C 60.8 °F /  16.0 °C 30.2in /  1023.8hPa ENE 1.2mph /  2km/h 1.9mph /  3km/h 85% 0in /  0.00mm 0.00 W/m2 unknown
22:14 64.4 °F /  18.0 °C 60.8 °F /  16.0 °C 30.2in /  1023.8hPa NE 1.9mph /  3km/h 2.5mph /  4km/h 85% 0in /  0.00mm 0.00 W/m2 unknown
22:19 64.4 °F /  18.0 °C 60.8 °F /  16.0 °C 30.2in /  1023.8hPa NNE 2.5mph /  4km/h 3.7mph /  6km/h 85% 0in /  0.00mm 0.00 W/m2 unknown
22:24 64.4 °F /  18.0 °C 60.8 °F /  16.0 °C 30.2in /  1023.9hPa NE 2.5mph /  4km/h 3.7mph /  6km/h 85% 0in /  0.00mm 0.00 W/m2 unknown
22:29 64.4 °F /  18.0 °C 60.8 °F /  16.0 °C 30.2in /  1023.9hPa NNE 1.9mph /  3km/h 3.7mph /  6km/h 85% 0in /  0.00mm 0.00 W/m2 unknown
22:34 64.4 °F /  18.0 °C 60.8 °F /  16.0 °C 30.2in /  1024.0hPa NNE 2.5mph /  4km/h 3.7mph /  6km/h 85% 0in /  0.00mm 0.00 W/m2 unknown
22:39 64.4 °F /  18.0 °C 60.8 °F /  16.0 °C 30.2in /  1024.0hPa NNE 2.5mph /  4km/h 3.7mph /  6km/h 85% 0in /  0.00mm 0.00 W/m2 unknown
22:44 64.4 °F /  18.0 °C 60.8 °F /  16.0 °C 30.2in /  1024.2hPa ENE 3.7mph /  6km/h 5mph /  8km/h 85% 0in /  0.00mm 0.00 W/m2 unknown
22:49 66.2 °F /  19.0 °C 60.8 °F /  16.0 °C 30.2in /  1024.2hPa NE 3.7mph /  6km/h 5mph /  8km/h 85% 0in /  0.00mm 0.00 W/m2 unknown
22:54 66.2 °F /  19.0 °C 60.8 °F /  16.0 °C 30.2in /  1024.1hPa NE 4.3mph /  7km/h 5mph /  8km/h 84% 0in /  0.00mm 0.00 W/m2 unknown
22:59 66.2 °F /  19.0 °C 60.8 °F /  16.0 °C 30.2in /  1024.1hPa NE 4.3mph /  7km/h 5mph /  8km/h 84% 0in /  0.00mm 0.00 W/m2 unknown
23:04 66.2 °F /  19.0 °C 60.8 °F /  16.0 °C 30.2in /  1024.1hPa NE 3.1mph /  5km/h 5mph /  8km/h 83% 0in /  0.00mm 0.00 W/m2 unknown
23:09 66.2 °F /  19.0 °C 60.8 °F /  16.0 °C 30.2in /  1024.2hPa NE 3.7mph /  6km/h 3.7mph /  6km/h 83% 0in /  0.00mm 0.00 W/m2 unknown
23:14 66.2 °F /  19.0 °C 60.8 °F /  16.0 °C 30.2in /  1024.1hPa NE 3.1mph /  5km/h 3.7mph /  6km/h 83% 0in /  0.00mm 0.00 W/m2 unknown
23:19 66.2 °F /  19.0 °C 60.8 °F /  16.0 °C 30.2in /  1024.1hPa NE 3.1mph /  5km/h 3.7mph /  6km/h 83% 0in /  0.00mm 0.00 W/m2 unknown
23:24 64.4 °F /  18.0 °C 60.8 °F /  16.0 °C 30.2in /  1024.0hPa NE 3.1mph /  5km/h 3.7mph /  6km/h 83% 0in /  0.00mm 0.00 W/m2 unknown
23:29 64.4 °F /  18.0 °C 60.8 °F /  16.0 °C 30.2in /  1024.1hPa NE 3.1mph /  5km/h 3.7mph /  6km/h 83% 0in /  0.00mm 0.00 W/m2 unknown
23:34 64.4 °F /  18.0 °C 60.8 °F /  16.0 °C 30.2in /  1024.1hPa NE 3.1mph /  5km/h 3.7mph /  6km/h 83% 0in /  0.00mm 0.00 W/m2 unknown
23:39 66.2 °F /  19.0 °C 59 °F /  15.0 °C 30.2in /  1024.2hPa NE 2.5mph /  4km/h 3.7mph /  6km/h 82% 0in /  0.00mm 0.00 W/m2 unknown
23:44 64.4 °F /  18.0 °C 59 °F /  15.0 °C 30.2in /  1024.2hPa NNE 3.1mph /  5km/h 3.7mph /  6km/h 83% 0in /  0.00mm 0.00 W/m2 unknown
23:49 64.4 °F /  18.0 °C 59 °F /  15.0 °C 30.2in /  1024.2hPa NNE 2.5mph /  4km/h 3.7mph /  6km/h 83% 0in /  0.00mm 0.00 W/m2 unknown
23:54 64.4 °F /  18.0 °C 59 °F /  15.0 °C 30.2in /  1024.2hPa NNE 1.2mph /  2km/h 3.1mph /  5km/h 83% 0in /  0.00mm 0.00 W/m2 unknown
23:59 64.4 °F /  18.0 °C 59 °F /  15.0 °C 30.2in /  1024.2hPa NNE 1.2mph /  2km/h 1.9mph /  3km/h 84% 0in /  0.00mm 0.00 W/m2 unknown
Stazione Meteorologica MeteoMincio Rivalta s/M (MN)
Con i complimenti di Weather Underground - 4 mb



METEO PILLOLE
La più ampia escursione annua
Verkhojansk, Russia:
L'escursione termica va da - 68 a 34,5°C nel corso di un anno.
Share

Non seguire questo link o sarai bannato dal sito!